This is the latest recevied weather packets stored in our database for station/object JG6YPS-13. If no packets are shown the sender has not sent any weather packets the latest 10 day(s).
| Time | Temp. | Humidity | Pressure | Rain* | Wind** | Luminosity | Snow |
|---|---|---|---|---|---|---|---|
| 1777488763 | 15.56° C | 88% | 1014.7 hPa | 1.78 mm | - | - | - |
| 1777488164 | 15.56° C | 88% | 1014.8 hPa | 1.27 mm | - | - | - |
| 1777487564 | 15.56° C | 88% | 1015 hPa | 1.78 mm | - | - | - |
| 1777486965 | 15.56° C | 88% | 1015.1 hPa | 2.03 mm | - | - | - |
| 1777486365 | 15.56° C | 89% | 1015.5 hPa | 1.78 mm | - | - | - |
| 1777485766 | 15.56° C | 88% | 1015.2 hPa | 1.78 mm | - | - | - |
| 1777485166 | 15.56° C | 88% | 1015 hPa | 1.78 mm | - | - | - |
| 1777484566 | 15.56° C | 89% | 1015.1 hPa | 2.03 mm | - | - | - |
| 1777483967 | 15.56° C | 88% | 1015.2 hPa | 2.03 mm | - | - | - |
| 1777483367 | 15.56° C | 89% | 1015.2 hPa | 2.29 mm | - | - | - |
| 1777482767 | 15.56° C | 89% | 1015.1 hPa | 2.29 mm | - | - | - |
| 1777482168 | 15° C | 88% | 1015.1 hPa | 2.29 mm | - | - | - |
| 1777481568 | 15° C | 88% | 1015.4 hPa | 2.29 mm | - | - | - |
| 1777480969 | 15.56° C | 88% | 1015.5 hPa | 2.03 mm | - | - | - |
| 1777480369 | 15.56° C | 88% | 1016.1 hPa | 2.03 mm | - | - | - |
| 1777479770 | 15.56° C | 88% | 1016.6 hPa | 1.27 mm | - | - | - |
| 1777479170 | 15.56° C | 88% | 1016.9 hPa | 1.02 mm | - | - | - |
| 1777478570 | 15.56° C | 88% | 1017 hPa | 0.76 mm | - | - | - |
| 1777477971 | 15.56° C | 87% | 1016.9 hPa | 0.51 mm | - | - | - |
| 1777477371 | 15.56° C | 87% | 1016.8 hPa | 0.25 mm | - | - | - |
| 1777476771 | 15.56° C | 86% | 1016.8 hPa | 0 mm | - | - | - |
| 1777476172 | 16.11° C | 87% | 1017 hPa | 0 mm | - | - | - |
| 1777475572 | 15.56° C | 87% | 1017.1 hPa | 0 mm | - | - | - |
| 1777474973 | 16.11° C | 87% | 1017.1 hPa | 0 mm | - | - | - |
| 1777474373 | 16.11° C | 87% | 1017 hPa | 0 mm | - | - | - |
* Rain latest hour (hover to see other rain measurements)
** Current wind speed in m/s (hover to see current wind gust speed)